Regional Weather Roundup
Issued by NWS Midland/Odessa, TX

Skip options and go directly to product.
Home | Oldest Version | Previous Version | Current Version | All | Text Only | Save Text | Print | Product List | Glossary On

Skip product version selection by date and time.   
626
ASUS44 KMAF 040310
RWRMAF
MIDLAND AREA WEATHER ROUNDUP
NATIONAL WEATHER SERVICE MIDLAND TX
900 PM CST SAT DEC 03 2016

...IN SOUTHWEST TEXAS AND SOUTHEAST NEW MEXICO...

CITY           SKY/WX    TMP DP  RH WIND       PRES   REMARKS
ALPINE         CLOUDY    37  37  99 CALM      30.05R
ANDREWS        LGT RAIN  40  40 100 E5        29.98F WCI  37
ARTESIA        MOCLDY    39  39 100 CALM      30.00F
BIG SPRING     CLOUDY    42  41  97 N3        30.02S
CARLSBAD       CLOUDY    39  38  96 NW6       30.00S WCI  35
DRYDEN           N/A     47  46  97 N10       29.94
FORT STOCKTON  CLOUDY    42  42 100 N5        30.00S WCI  39
GUAD PASS      NOT AVBL
HOBBS          CLOUDY    39  39 100 NE3       30.00F
MARFA          CLOUDY    37  35  92 N7        30.00R WCI  32
MIDLAND AIRPK  DRIZZLE   43  43 100 NE8       29.99F WCI  39
MIDLAND INTL   CLOUDY    43  40  89 NE12      29.97F WCI  37
ODESSA         CLOUDY    42  39  89 NE10      29.97F WCI  36
PECOS          CLOUDY    41  39  94 W5        30.03R WCI  38
PRESIDIO       CLOUDY    47  45  90 NW3       29.95S
SEMINOLE       DRIZZLE   40  40 100 NE3       30.01R
SNYDER         MIX PCPN  41  41  99 N7        30.01R WCI  37
WINK           CLOUDY    43  42  97 NW3       29.99R
$$
...OTHER STATIONS IN TEXAS...

CITY           SKY/WX    TMP DP  RH WIND       PRES   REMARKS
ABILENE        CLOUDY    45  45 100 N7        30.01R
AMARILLO       CLOUDY    38  38 100 SE9       30.00S FOG     WCI  31
AUSTIN         CLOUDY    52  50  93 N14       29.92R
BROWNSVILLE    MOCLDY    77  74  90 E3        29.79S
CORPUS CHRISTI CLOUDY    60  57  89 NW20      29.89R THUNDER
DALLAS FTW     DRIZZLE   48  46  93 NE8       30.00R FOG
DEL RIO        LGT RAIN  52  52 100 NW6       29.93R
EL PASO        CLOUDY    45  36  70 SE3       29.99R
HOUSTON INT    CLOUDY    53  51  93 NE12      29.87F
LUBBOCK        DRIZZLE   40  39  97 N8        30.00R WCI  34
SAN ANGELO     LGT RAIN  47  46  97 NE5       29.98R FOG
SAN ANTONIO    CLOUDY    52  50  93 N12       29.91F
WACO           CLOUDY    49  49 100 N9        29.96R FOG
WICHITA FALLS  NOT AVBL
$$
...OTHER LOCATIONS IN NEW MEXICO...

CITY           SKY/WX    TMP DP  RH WIND       PRES   REMARKS
ALAMAGORDO     NOT AVBL
ALBUQUERQUE    CLEAR     38  26  62 NW9       30.05R WCI  31
CANNON AFB     MOCLDY    35  35 100 SW5       29.99S WCI  31
CLOVIS         CLOUDY    37  34  87 CALM      29.99S
HOLLOMAN AFB   CLOUDY    45  40  83 CALM      30.03R
ROSWELL        PTCLDY    39  35  86 NW5       29.99F WCI  36
RUIDOSO          N/A     32  32 100 NW13      30.00F WCI  22
SANTA FE       CLEAR     30  19  63 N7        29.99R WCI  23
TRUTH OR CONSE CLEAR     42  31  64 NW8       30.01R WCI  37
TUCUMCARI      CLOUDY    32  31  96 NW3       29.95F
$$

  • National Weather Service
  • Southern Region Headquarters
  • 819 Taylor Street, Room 10A06
  • Fort Worth, TX 76102
  • Page Author: NWS Fort Worth
  • Web Master: SR-SRH.Webmaster@noaa.gov
  •  
  • Page last modified: 30-Sep-2016 6:36 PM UTC
USA.gov is the U.S. government's official web portal to all federal, state and local government web resources and services.